VOZ140 YBTL-YBAS

Flight info

Callsign VOZ140
Flight time 2h 8m
Altitude 36000
Route WISKA J184 MA J64 ANZAC
Aircraft B739/M-SDE2E3FGHIRWXY/LB1

Departure

Time 2026-04-19 08:28
Airport Townsville Airport / RAAF Base Townsville (YBTL)

Arrival

Time 2026-04-19 10:37
Airport Alice Springs Airport (YBAS)
Time Latitude Longitude Altitude Speed Heading
2026-04-19 08:07 -19.25646 146.76960 14 ft 0 kts 117°
2026-04-19 08:23 -19.25641 146.76950 3 ft 4 kts 117°
2026-04-19 08:24 -19.25633 146.76934 31 ft 4 kts 122°
2026-04-19 08:24 -19.25605 146.76919 28 ft 4 kts 185°
2026-04-19 08:24 -19.25591 146.76921 26 ft 0 kts 194°
2026-04-19 08:25 -19.25617 146.76914 31 ft 6 kts 194°
2026-04-19 08:26 -19.25652 146.76877 27 ft 9 kts 257°
2026-04-19 08:26 -19.25631 146.76804 27 ft 12 kts 293°
2026-04-19 08:26 -19.25654 146.76719 28 ft 14 kts 217°
2026-04-19 08:26 -19.25743 146.76668 27 ft 15 kts 206°
2026-04-19 08:27 -19.25838 146.76612 28 ft 16 kts 219°
2026-04-19 08:27 -19.25825 146.76511 27 ft 15 kts 315°
2026-04-19 08:27 -19.25766 146.76505 28 ft 0 kts 25°
2026-04-19 08:27 -19.25763 146.76507 28 ft 0 kts 24°
2026-04-19 08:28 -19.25759 146.76509 28 ft 4 kts 24°
2026-04-19 08:28 -19.25447 146.76654 22 ft 96 kts 24°
2026-04-19 08:28 -19.24597 146.77058 28 ft 169 kts 30°
2026-04-19 08:28 -19.23454 146.77643 663 ft 189 kts 27°
2026-04-19 08:29 -19.22166 146.78195 1348 ft 216 kts 21°
2026-04-19 08:29 -19.20665 146.78724 2090 ft 231 kts 20°
2026-04-19 08:29 -19.19062 146.78995 2871 ft 242 kts 357°
2026-04-19 08:29 -19.17425 146.78513 3538 ft 247 kts 342°
2026-04-19 08:30 -19.15811 146.77786 4082 ft 255 kts 339°
2026-04-19 08:30 -19.14178 146.77031 4746 ft 257 kts 339°
2026-04-19 08:30 -19.12522 146.76281 5340 ft 260 kts 340°
2026-04-19 08:30 -19.10852 146.75537 5999 ft 260 kts 341°
2026-04-19 08:31 -19.09080 146.75249 6558 ft 259 kts 10°
2026-04-19 08:31 -19.07394 146.75852 7106 ft 258 kts 25°
2026-04-19 08:31 -19.05598 146.76117 7554 ft 271 kts 351°
2026-04-19 08:31 -19.03850 146.75232 7812 ft 292 kts 316°
2026-04-19 08:32 -19.02803 146.73393 8411 ft 297 kts 282°
2026-04-19 08:32 -19.02843 146.71261 9308 ft 291 kts 249°
2026-04-19 08:32 -19.03896 146.69490 10205 ft 285 kts 225°
2026-04-19 08:32 -19.05168 146.67810 10596 ft 306 kts 236°
2026-04-19 08:33 -19.06261 146.65775 10777 ft 330 kts 242°
2026-04-19 08:33 -19.07278 146.63513 11016 ft 350 kts 245°
2026-04-19 08:33 -19.08232 146.61155 11582 ft 356 kts 247°
2026-04-19 08:33 -19.09170 146.58692 12296 ft 357 kts 248°
2026-04-19 08:34 -19.10073 146.56237 13028 ft 359 kts 249°
2026-04-19 08:34 -19.10955 146.53793 13706 ft 361 kts 249°
2026-04-19 08:34 -19.11856 146.51272 14323 ft 364 kts 249°
2026-04-19 08:34 -19.12736 146.48791 14909 ft 366 kts 250°
2026-04-19 08:35 -19.13643 146.46233 15508 ft 368 kts 250°
2026-04-19 08:35 -19.14529 146.43727 16077 ft 370 kts 250°
2026-04-19 08:35 -19.15433 146.41173 16636 ft 372 kts 250°
2026-04-19 08:35 -19.16339 146.38607 17192 ft 374 kts 250°
2026-04-19 08:36 -19.17254 146.36018 17743 ft 377 kts 250°
2026-04-19 08:36 -19.18177 146.33405 18719 ft 384 kts 250°
2026-04-19 08:36 -19.19129 146.30706 18814 ft 398 kts 250°
2026-04-19 08:36 -19.20110 146.27926 19065 ft 407 kts 250°
2026-04-19 08:37 -19.21103 146.25113 19517 ft 409 kts 250°
2026-04-19 08:37 -19.22082 146.22339 20495 ft 394 kts 251°
2026-04-19 08:37 -19.23033 146.19644 21257 ft 389 kts 250°
2026-04-19 08:37 -19.23980 146.16951 21625 ft 393 kts 251°
2026-04-19 08:38 -19.24939 146.14224 21921 ft 398 kts 251°
2026-04-19 08:38 -19.25906 146.11472 22265 ft 400 kts 251°
2026-04-19 08:38 -19.26879 146.08705 22649 ft 402 kts 251°
2026-04-19 08:38 -19.27854 146.05930 23013 ft 403 kts 251°
2026-04-19 08:39 -19.28832 146.03146 23364 ft 404 kts 251°
2026-04-19 08:39 -19.29813 146.00349 23679 ft 406 kts 251°
2026-04-19 08:39 -19.30798 145.97540 23974 ft 408 kts 251°
2026-04-19 08:39 -19.31788 145.94717 24266 ft 410 kts 251°
2026-04-19 08:40 -19.32780 145.91884 24551 ft 411 kts 251°
2026-04-19 08:40 -19.33776 145.89041 24843 ft 412 kts 251°
2026-04-19 08:40 -19.34775 145.86189 25137 ft 414 kts 251°
2026-04-19 08:40 -19.35776 145.83325 25397 ft 416 kts 251°
2026-04-19 08:41 -19.36767 145.80489 25676 ft 416 kts 251°
2026-04-19 08:41 -19.37773 145.77608 25936 ft 418 kts 251°
2026-04-19 08:41 -19.38796 145.74678 26199 ft 419 kts 251°
2026-04-19 08:41 -19.39794 145.71819 26461 ft 420 kts 251°
2026-04-19 08:42 -19.40809 145.68911 26695 ft 422 kts 251°
2026-04-19 08:42 -19.41827 145.65992 26921 ft 424 kts 251°
2026-04-19 08:42 -19.42846 145.63067 27191 ft 424 kts 251°
2026-04-19 08:42 -19.43868 145.60128 27421 ft 425 kts 251°
2026-04-19 08:43 -19.44893 145.57182 27662 ft 426 kts 251°
2026-04-19 08:43 -19.45920 145.54228 27898 ft 428 kts 251°
2026-04-19 08:43 -19.46948 145.51271 28115 ft 429 kts 251°
2026-04-19 08:43 -19.47982 145.48291 28325 ft 431 kts 251°
2026-04-19 08:44 -19.49015 145.45316 28566 ft 431 kts 251°
2026-04-19 08:44 -19.50050 145.42333 28787 ft 432 kts 251°
2026-04-19 08:44 -19.51087 145.39342 28980 ft 434 kts 251°
2026-04-19 08:44 -19.52130 145.36332 29173 ft 435 kts 251°
2026-04-19 08:45 -19.53177 145.33309 29377 ft 437 kts 251°
2026-04-19 08:45 -19.54224 145.30283 29612 ft 437 kts 251°
2026-04-19 08:45 -19.55269 145.27262 29926 ft 436 kts 251°
2026-04-19 08:45 -19.56307 145.24256 30300 ft 433 kts 251°
2026-04-19 08:46 -19.57320 145.21298 30606 ft 432 kts 252°
2026-04-19 08:46 -19.58139 145.18193 30895 ft 432 kts 257°
2026-04-19 08:46 -19.58785 145.15131 31233 ft 430 kts 258°
2026-04-19 08:46 -19.59413 145.11999 31588 ft 428 kts 258°
2026-04-19 08:47 -19.60025 145.08916 31939 ft 426 kts 258°
2026-04-19 08:47 -19.60640 145.05841 32257 ft 426 kts 258°
2026-04-19 08:47 -19.61261 145.02770 32586 ft 425 kts 258°
2026-04-19 08:47 -19.61878 144.99754 32944 ft 424 kts 258°
2026-04-19 08:48 -19.62504 144.96708 33306 ft 422 kts 258°
2026-04-19 08:48 -19.63129 144.93673 33671 ft 420 kts 258°
2026-04-19 08:48 -19.63754 144.90647 34011 ft 419 kts 258°
2026-04-19 08:48 -19.64377 144.87628 34357 ft 418 kts 258°
2026-04-19 08:49 -19.64998 144.84619 34691 ft 417 kts 258°
2026-04-19 08:49 -19.65614 144.81626 35040 ft 415 kts 258°
2026-04-19 08:49 -19.66229 144.78637 35315 ft 415 kts 258°
2026-04-19 08:49 -19.66844 144.75648 35529 ft 416 kts 258°
2026-04-19 08:50 -19.67461 144.72652 35785 ft 415 kts 258°
2026-04-19 08:50 -19.68076 144.69657 36029 ft 415 kts 258°
2026-04-19 08:50 -19.69305 144.63662 36010 ft 415 kts 258°
2026-04-19 08:51 -19.70523 144.57710 36020 ft 411 kts 258°
2026-04-19 08:51 -19.71733 144.51787 36021 ft 409 kts 258°
2026-04-19 08:52 -19.72936 144.45892 36015 ft 408 kts 258°
2026-04-19 08:52 -19.74132 144.40010 36019 ft 407 kts 258°
2026-04-19 08:53 -19.75328 144.34126 36023 ft 408 kts 258°
2026-04-19 08:53 -19.76524 144.28231 36018 ft 410 kts 258°
2026-04-19 08:54 -19.77724 144.22307 36025 ft 411 kts 258°
2026-04-19 08:54 -19.78927 144.16358 36021 ft 413 kts 258°
2026-04-19 08:55 -19.80131 144.10391 36020 ft 414 kts 258°
2026-04-19 08:55 -19.81335 144.04409 36013 ft 415 kts 258°
2026-04-19 08:56 -19.82539 143.98422 36020 ft 415 kts 258°
2026-04-19 08:56 -19.83741 143.92435 36014 ft 414 kts 258°
2026-04-19 08:57 -19.84937 143.86462 36020 ft 413 kts 258°
2026-04-19 08:57 -19.86130 143.80498 36007 ft 413 kts 258°
2026-04-19 08:58 -19.87320 143.74541 36013 ft 412 kts 258°
2026-04-19 08:58 -19.88507 143.68586 36009 ft 411 kts 258°
2026-04-19 08:59 -19.89687 143.62645 36011 ft 411 kts 258°
2026-04-19 08:59 -19.90859 143.56743 36008 ft 411 kts 258°
2026-04-19 09:00 -19.92036 143.50800 36009 ft 411 kts 258°
2026-04-19 09:00 -19.93212 143.44857 36011 ft 411 kts 258°
2026-04-19 09:01 -19.94385 143.38917 36011 ft 411 kts 258°
2026-04-19 09:01 -19.95561 143.32944 36021 ft 416 kts 259°
2026-04-19 09:02 -19.96753 143.26882 36018 ft 422 kts 259°
2026-04-19 09:02 -19.97959 143.20742 36014 ft 426 kts 259°
2026-04-19 09:03 -19.99169 143.14567 36008 ft 427 kts 259°
2026-04-19 09:03 -20.00380 143.08376 36008 ft 428 kts 259°
2026-04-19 09:04 -20.01585 143.02203 36009 ft 425 kts 259°
2026-04-19 09:04 -20.02782 142.96060 36004 ft 423 kts 259°
2026-04-19 09:05 -20.03970 142.89944 36008 ft 421 kts 259°
2026-04-19 09:05 -20.05152 142.83856 36006 ft 420 kts 259°
2026-04-19 09:06 -20.06329 142.77778 36009 ft 420 kts 259°
2026-04-19 09:06 -20.07505 142.71696 36010 ft 420 kts 259°
2026-04-19 09:07 -20.08666 142.65672 36006 ft 417 kts 260°
2026-04-19 09:07 -20.09827 142.59645 36004 ft 415 kts 260°
2026-04-19 09:08 -20.10983 142.53630 36007 ft 414 kts 260°
2026-04-19 09:08 -20.12131 142.47640 36009 ft 413 kts 260°
2026-04-19 09:09 -20.13275 142.41659 36009 ft 413 kts 260°
2026-04-19 09:09 -20.14421 142.35669 36012 ft 413 kts 260°
2026-04-19 09:10 -20.15563 142.29681 36013 ft 413 kts 260°
2026-04-19 09:10 -20.16706 142.23675 36016 ft 414 kts 260°
2026-04-19 09:11 -20.17661 142.18646 36020 ft 414 kts 260°
2026-04-19 09:11 -20.18985 142.11661 36018 ft 415 kts 260°
2026-04-19 09:12 -20.19932 142.06655 36018 ft 415 kts 260°
2026-04-19 09:12 -20.21071 142.00628 36018 ft 415 kts 260°
2026-04-19 09:13 -20.22207 141.94604 36018 ft 415 kts 260°
2026-04-19 09:13 -20.23341 141.88573 36021 ft 415 kts 260°
2026-04-19 09:14 -20.24474 141.82541 36018 ft 415 kts 260°
2026-04-19 09:14 -20.25605 141.76508 36017 ft 416 kts 260°
2026-04-19 09:15 -20.26735 141.70470 36019 ft 416 kts 260°
2026-04-19 09:16 -20.28425 141.61409 36020 ft 416 kts 260°
2026-04-19 09:16 -20.29550 141.55369 36016 ft 415 kts 260°
2026-04-19 09:17 -20.30664 141.49377 36018 ft 415 kts 260°
2026-04-19 09:17 -20.31781 141.43353 36015 ft 415 kts 260°
2026-04-19 09:18 -20.32895 141.37335 36019 ft 414 kts 260°
2026-04-19 09:18 -20.34007 141.31307 36020 ft 414 kts 260°
2026-04-19 09:19 -20.35118 141.25281 36021 ft 414 kts 260°
2026-04-19 09:19 -20.36226 141.19256 36017 ft 414 kts 260°
2026-04-19 09:20 -20.37324 141.13232 36020 ft 414 kts 260°
2026-04-19 09:20 -20.38421 141.07198 36019 ft 414 kts 260°
2026-04-19 09:21 -20.39516 141.01171 36018 ft 415 kts 260°
2026-04-19 09:21 -20.40611 140.95136 36020 ft 415 kts 260°
2026-04-19 09:22 -20.41703 140.89098 36019 ft 415 kts 260°
2026-04-19 09:22 -20.42796 140.83051 36019 ft 415 kts 260°
2026-04-19 09:23 -20.43886 140.77004 36017 ft 416 kts 260°
2026-04-19 09:23 -20.44975 140.70947 36015 ft 416 kts 260°
2026-04-19 09:24 -20.46058 140.64880 36015 ft 417 kts 260°
2026-04-19 09:24 -20.47145 140.58803 36019 ft 417 kts 260°
2026-04-19 09:25 -20.48236 140.52727 36019 ft 418 kts 260°
2026-04-19 09:25 -20.49325 140.46638 36018 ft 418 kts 260°
2026-04-19 09:26 -20.50409 140.40545 36018 ft 418 kts 260°
2026-04-19 09:26 -20.51487 140.34483 36019 ft 419 kts 260°
2026-04-19 09:27 -20.52570 140.28376 36020 ft 419 kts 261°
2026-04-19 09:27 -20.53651 140.22259 36018 ft 419 kts 260°
2026-04-19 09:28 -20.54731 140.16145 36017 ft 420 kts 260°
2026-04-19 09:28 -20.55808 140.10026 36018 ft 420 kts 260°
2026-04-19 09:29 -20.56885 140.03903 36018 ft 420 kts 260°
2026-04-19 09:29 -20.57960 139.97776 36022 ft 420 kts 260°
2026-04-19 09:30 -20.59033 139.91648 36017 ft 421 kts 261°
2026-04-19 09:30 -20.60104 139.85510 36019 ft 421 kts 260°
2026-04-19 09:31 -20.61174 139.79371 36018 ft 421 kts 261°
2026-04-19 09:31 -20.62241 139.73233 36018 ft 420 kts 261°
2026-04-19 09:32 -20.63304 139.67110 36016 ft 419 kts 261°
2026-04-19 09:32 -20.64364 139.60989 36021 ft 419 kts 261°
2026-04-19 09:33 -20.65419 139.54878 36020 ft 418 kts 261°
2026-04-19 09:33 -20.66834 139.48853 36024 ft 420 kts 251°
2026-04-19 09:34 -20.69530 139.43286 36028 ft 424 kts 242°
2026-04-19 09:34 -20.72694 139.37958 36021 ft 425 kts 241°
2026-04-19 09:35 -20.75854 139.32629 36015 ft 424 kts 241°
2026-04-19 09:35 -20.78993 139.27292 36019 ft 424 kts 242°
2026-04-19 09:36 -20.82119 139.21953 36019 ft 424 kts 242°
2026-04-19 09:36 -20.85218 139.16646 36017 ft 423 kts 242°
2026-04-19 09:37 -20.88335 139.11308 36020 ft 423 kts 242°
2026-04-19 09:37 -20.91446 139.05971 36019 ft 423 kts 242°
2026-04-19 09:38 -20.94555 139.00635 36018 ft 423 kts 242°
2026-04-19 09:38 -20.97663 138.95295 36016 ft 422 kts 242°
2026-04-19 09:39 -21.00765 138.89961 36020 ft 422 kts 242°
2026-04-19 09:39 -21.03869 138.84618 36022 ft 422 kts 242°
2026-04-19 09:40 -21.06968 138.79280 36029 ft 422 kts 242°
2026-04-19 09:40 -21.10065 138.73939 36029 ft 422 kts 242°
2026-04-19 09:41 -21.13159 138.68595 36015 ft 422 kts 242°
2026-04-19 09:41 -21.16248 138.63250 36028 ft 422 kts 242°
2026-04-19 09:42 -21.19341 138.57905 36030 ft 421 kts 242°
2026-04-19 09:42 -21.22428 138.52566 36029 ft 421 kts 242°
2026-04-19 09:43 -21.25490 138.47259 36028 ft 421 kts 242°
2026-04-19 09:43 -21.28589 138.41886 36028 ft 421 kts 242°
2026-04-19 09:44 -21.31643 138.36584 36028 ft 420 kts 242°
2026-04-19 09:44 -21.34730 138.31218 36025 ft 420 kts 242°
2026-04-19 09:45 -21.37794 138.25889 36029 ft 419 kts 242°
2026-04-19 09:45 -21.40832 138.20599 36027 ft 419 kts 242°
2026-04-19 09:46 -21.43885 138.15277 36027 ft 419 kts 242°
2026-04-19 09:46 -21.46936 138.09955 36050 ft 418 kts 242°
2026-04-19 09:47 -21.49975 138.04646 36059 ft 418 kts 242°
2026-04-19 09:47 -21.53015 137.99331 36057 ft 417 kts 242°
2026-04-19 09:48 -21.56052 137.94015 36054 ft 417 kts 242°
2026-04-19 09:48 -21.59088 137.88699 36055 ft 417 kts 243°
2026-04-19 09:49 -21.62087 137.83381 36053 ft 419 kts 243°
2026-04-19 09:49 -21.65144 137.78042 36069 ft 418 kts 243°
2026-04-19 09:50 -21.68172 137.72715 36069 ft 418 kts 242°
2026-04-19 09:50 -21.71231 137.67389 36064 ft 418 kts 242°
2026-04-19 09:51 -21.74290 137.62067 36067 ft 418 kts 243°
2026-04-19 09:51 -21.77283 137.56716 36074 ft 417 kts 243°
2026-04-19 09:52 -21.80302 137.51379 36071 ft 416 kts 243°
2026-04-19 09:52 -21.83295 137.46055 36072 ft 416 kts 242°
2026-04-19 09:53 -21.86332 137.40753 36071 ft 417 kts 242°
2026-04-19 09:53 -21.89363 137.35398 36061 ft 419 kts 243°
2026-04-19 09:54 -21.92382 137.30034 36074 ft 418 kts 243°
2026-04-19 09:54 -21.95402 137.24678 36077 ft 418 kts 243°
2026-04-19 09:55 -21.98424 137.19317 36081 ft 419 kts 243°
2026-04-19 09:55 -22.01447 137.13948 36084 ft 419 kts 243°
2026-04-19 09:56 -22.04466 137.08587 36089 ft 417 kts 243°
2026-04-19 09:56 -22.07463 137.03254 36076 ft 414 kts 243°
2026-04-19 09:57 -22.10436 136.97959 36079 ft 412 kts 243°
2026-04-19 09:57 -22.12898 136.93566 36083 ft 411 kts 243°
2026-04-19 09:58 -22.15851 136.88294 36090 ft 410 kts 243°
2026-04-19 09:58 -22.18804 136.83020 36093 ft 411 kts 243°
2026-04-19 09:59 -22.21753 136.77744 36093 ft 411 kts 243°
2026-04-19 09:59 -22.24701 136.72465 36097 ft 411 kts 243°
2026-04-19 10:00 -22.27649 136.67181 36102 ft 411 kts 243°
2026-04-19 10:00 -22.30604 136.61883 36105 ft 412 kts 243°
2026-04-19 10:01 -22.33563 136.56573 36101 ft 413 kts 243°
2026-04-19 10:01 -22.36524 136.51260 36103 ft 413 kts 243°
2026-04-19 10:02 -22.39487 136.45937 36110 ft 413 kts 243°
2026-04-19 10:02 -22.42447 136.40611 36110 ft 413 kts 243°
2026-04-19 10:03 -22.45387 136.35316 36111 ft 413 kts 243°
2026-04-19 10:03 -22.48362 136.29952 36109 ft 414 kts 243°
2026-04-19 10:04 -22.51299 136.24653 36112 ft 413 kts 243°
2026-04-19 10:04 -22.54271 136.19284 36120 ft 413 kts 243°
2026-04-19 10:05 -22.57204 136.13981 36118 ft 413 kts 243°
2026-04-19 10:05 -22.60152 136.08642 36121 ft 414 kts 243°
2026-04-19 10:06 -22.63099 136.03301 36119 ft 413 kts 243°
2026-04-19 10:06 -22.66043 135.97959 36118 ft 413 kts 243°
2026-04-19 10:07 -22.68986 135.92615 36124 ft 413 kts 243°
2026-04-19 10:07 -22.71922 135.87278 36132 ft 412 kts 243°
2026-04-19 10:08 -22.74821 135.81930 36132 ft 410 kts 247°
2026-04-19 10:08 -22.77253 135.76368 36129 ft 408 kts 249°
2026-04-19 10:09 -22.79632 135.70789 36134 ft 407 kts 249°
2026-04-19 10:09 -22.82013 135.65220 36130 ft 407 kts 249°
2026-04-19 10:10 -22.84395 135.59667 36139 ft 406 kts 249°
2026-04-19 10:10 -22.86779 135.54115 36146 ft 406 kts 249°
2026-04-19 10:11 -22.89162 135.48559 36139 ft 406 kts 249°
2026-04-19 10:11 -22.91539 135.43010 36129 ft 405 kts 249°
2026-04-19 10:12 -22.93895 135.37505 36142 ft 405 kts 249°
2026-04-19 10:12 -22.96264 135.31960 36145 ft 405 kts 249°
2026-04-19 10:13 -22.98630 135.26420 36142 ft 404 kts 249°
2026-04-19 10:13 -23.00989 135.20891 36150 ft 404 kts 249°
2026-04-19 10:14 -23.03334 135.15388 36144 ft 398 kts 249°
2026-04-19 10:14 -23.05646 135.09954 36151 ft 395 kts 249°
2026-04-19 10:14 -23.06806 135.07223 35498 ft 404 kts 249°
2026-04-19 10:15 -23.07981 135.04451 34756 ft 403 kts 249°
2026-04-19 10:15 -23.09157 135.01679 33894 ft 404 kts 249°
2026-04-19 10:15 -23.10331 134.98913 33191 ft 401 kts 249°
2026-04-19 10:15 -23.11495 134.96175 32525 ft 397 kts 249°
2026-04-19 10:16 -23.12641 134.93474 31903 ft 392 kts 249°
2026-04-19 10:16 -23.13774 134.90803 31278 ft 387 kts 249°
2026-04-19 10:16 -23.14897 134.88153 30676 ft 383 kts 249°
2026-04-19 10:16 -23.16004 134.85537 30072 ft 379 kts 249°
2026-04-19 10:17 -23.17098 134.82949 29480 ft 375 kts 249°
2026-04-19 10:17 -23.18179 134.80392 28878 ft 371 kts 249°
2026-04-19 10:17 -23.19250 134.77856 28288 ft 367 kts 249°
2026-04-19 10:17 -23.20311 134.75342 27697 ft 364 kts 248°
2026-04-19 10:18 -23.21363 134.72848 27119 ft 362 kts 248°
2026-04-19 10:18 -23.22407 134.70371 26542 ft 359 kts 248°
2026-04-19 10:18 -23.23442 134.67915 25969 ft 357 kts 248°
2026-04-19 10:19 -23.25485 134.63062 24836 ft 353 kts 248°
2026-04-19 10:19 -23.26504 134.60642 24273 ft 351 kts 248°
2026-04-19 10:19 -23.27515 134.58239 23714 ft 349 kts 248°
2026-04-19 10:19 -23.28521 134.55845 23168 ft 347 kts 247°
2026-04-19 10:20 -23.29521 134.53465 22625 ft 346 kts 247°
2026-04-19 10:20 -23.30518 134.51091 22081 ft 344 kts 247°
2026-04-19 10:20 -23.31510 134.48727 21543 ft 343 kts 247°
2026-04-19 10:20 -23.32499 134.46370 20962 ft 342 kts 246°
2026-04-19 10:21 -23.33498 134.43987 20065 ft 351 kts 246°
2026-04-19 10:21 -23.34512 134.41569 19203 ft 351 kts 246°
2026-04-19 10:21 -23.35520 134.39161 18301 ft 349 kts 246°
2026-04-19 10:21 -23.36524 134.36761 17391 ft 347 kts 245°
2026-04-19 10:22 -23.37524 134.34373 16507 ft 345 kts 245°
2026-04-19 10:22 -23.38516 134.32001 15636 ft 343 kts 245°
2026-04-19 10:22 -23.39502 134.29643 14795 ft 341 kts 244°
2026-04-19 10:22 -23.40479 134.27306 14049 ft 337 kts 244°
2026-04-19 10:23 -23.41447 134.24990 13254 ft 335 kts 244°
2026-04-19 10:23 -23.42411 134.22678 12428 ft 335 kts 243°
2026-04-19 10:23 -23.43372 134.20373 11581 ft 334 kts 243°
2026-04-19 10:23 -23.44333 134.18069 10739 ft 334 kts 243°
2026-04-19 10:24 -23.45292 134.15768 9943 ft 333 kts 243°
2026-04-19 10:24 -23.46245 134.13479 9146 ft 332 kts 243°
2026-04-19 10:24 -23.47051 134.11543 8503 ft 330 kts 242°
2026-04-19 10:24 -23.47996 134.09273 7772 ft 327 kts 242°
2026-04-19 10:25 -23.48921 134.07047 7586 ft 315 kts 242°
2026-04-19 10:25 -23.49802 134.04919 7446 ft 303 kts 242°
2026-04-19 10:25 -23.50667 134.02839 7083 ft 300 kts 242°
2026-04-19 10:25 -23.51528 134.00770 6695 ft 299 kts 242°
2026-04-19 10:26 -23.52385 133.98711 6312 ft 298 kts 242°
2026-04-19 10:26 -23.53233 133.96666 5936 ft 296 kts 242°
2026-04-19 10:26 -23.54080 133.94624 5585 ft 294 kts 243°
2026-04-19 10:26 -23.54931 133.92585 5530 ft 297 kts 243°
2026-04-19 10:27 -23.55781 133.90537 5503 ft 297 kts 243°
2026-04-19 10:27 -23.56617 133.88517 5487 ft 286 kts 243°
2026-04-19 10:27 -23.57406 133.86607 5504 ft 265 kts 243°
2026-04-19 10:27 -23.58131 133.84848 5493 ft 244 kts 242°
2026-04-19 10:28 -23.58798 133.83232 5482 ft 224 kts 242°
2026-04-19 10:28 -23.59424 133.81721 5502 ft 216 kts 242°
2026-04-19 10:28 -23.60043 133.80230 5492 ft 216 kts 242°
2026-04-19 10:28 -23.60653 133.78756 5504 ft 217 kts 242°
2026-04-19 10:29 -23.61282 133.77235 5498 ft 217 kts 242°
2026-04-19 10:29 -23.61902 133.75740 5512 ft 217 kts 242°
2026-04-19 10:29 -23.62511 133.74266 5509 ft 216 kts 242°
2026-04-19 10:29 -23.63127 133.72771 5496 ft 216 kts 242°
2026-04-19 10:30 -23.63753 133.71260 5498 ft 216 kts 242°
2026-04-19 10:30 -23.64413 133.69800 5486 ft 213 kts 230°
2026-04-19 10:30 -23.65502 133.68825 5492 ft 195 kts 201°
2026-04-19 10:30 -23.66756 133.68476 5493 ft 182 kts 178°
2026-04-19 10:31 -23.67990 133.68691 5522 ft 179 kts 157°
2026-04-19 10:31 -23.68972 133.69442 5508 ft 171 kts 129°
2026-04-19 10:31 -23.69707 133.70480 5508 ft 177 kts 128°
2026-04-19 10:31 -23.70429 133.71497 5424 ft 163 kts 127°
2026-04-19 10:32 -23.71055 133.72473 5239 ft 151 kts 123°
2026-04-19 10:32 -23.71599 133.73422 5047 ft 146 kts 122°
2026-04-19 10:32 -23.72123 133.74375 4870 ft 147 kts 122°
2026-04-19 10:32 -23.72641 133.75338 4669 ft 147 kts 121°
2026-04-19 10:33 -23.73157 133.76305 4482 ft 150 kts 121°
2026-04-19 10:33 -23.73686 133.77296 4275 ft 149 kts 122°
2026-04-19 10:33 -23.74212 133.78279 4076 ft 150 kts 121°
2026-04-19 10:33 -23.74726 133.79246 3879 ft 144 kts 121°
2026-04-19 10:34 -23.75225 133.80184 3699 ft 143 kts 121°
2026-04-19 10:34 -23.75727 133.81126 3502 ft 143 kts 121°
2026-04-19 10:34 -23.76220 133.82053 3316 ft 140 kts 121°
2026-04-19 10:34 -23.76724 133.82997 3119 ft 149 kts 120°
2026-04-19 10:35 -23.77251 133.83987 2921 ft 151 kts 120°
2026-04-19 10:35 -23.77774 133.84968 2721 ft 149 kts 120°
2026-04-19 10:35 -23.78294 133.85944 2523 ft 148 kts 120°
2026-04-19 10:35 -23.78807 133.86905 2325 ft 144 kts 120°
2026-04-19 10:36 -23.79305 133.87839 2141 ft 141 kts 120°
2026-04-19 10:36 -23.79802 133.88771 1959 ft 143 kts 120°
2026-04-19 10:36 -23.80294 133.89693 1794 ft 140 kts 120°
2026-04-19 10:36 -23.80720 133.90483 1781 ft 91 kts 121°
2026-04-19 10:37 -23.80880 133.90748 1781 ft 18 kts 139°
2026-04-19 10:37 -23.80857 133.90819 1779 ft 13 kts 344°
2026-04-19 10:37 -23.80786 133.90611 1779 ft 48 kts 286°
2026-04-19 10:37 -23.80669 133.90377 1782 ft 24 kts 304°
2026-04-19 10:38 -23.80556 133.90343 1787 ft 4 kts 30°
2026-04-19 10:38 -23.80528 133.90361 1788 ft 8 kts 30°
2026-04-19 10:38 -23.80464 133.90366 1789 ft 5 kts 317°
2026-04-19 10:38 -23.80445 133.90332 1789 ft 5 kts 301°
2026-04-19 10:39 -23.80426 133.90298 1789 ft 5 kts 301°
2026-04-19 10:39 -23.80407 133.90263 1789 ft 5 kts 301°
2026-04-19 10:39 -23.80389 133.90229 1789 ft 5 kts 300°
2026-04-19 10:39 -23.80371 133.90195 1789 ft 1 kts 300°
2026-04-19 10:40 -23.80358 133.90189 1789 ft 3 kts 357°
2026-04-19 10:40 -23.80346 133.90206 1789 ft 3 kts 67°
2026-04-19 10:41 -23.80339 133.90226 1788 ft 3 kts 70°
2026-04-19 10:41 -23.80338 133.90231 1790 ft 0 kts 70°